STARLINK-11127, 60119

Orbit data source: Space-Track

STARLINK-11127, 60119 is a payload satellite owned by SpaceX/Seattle (US) in LEO that was launched on Mon, 24 Jun 2024 UTC via an FALCON 9 launch vehicle from the Air Force Western Test Range (AFWTR). Payload-class satellites include a variety of spacecraft equipped with specific instruments for various scientific and technological missions. These include communications satellites like Starlink; space stations such as the ISS; scientific satellites like the Hubble; Earth observation satellites from companies like Planet Labs, Umbra, and HawkEye 360; GPS; miniature CubeSats for education and research; and military/defense satellites.

Loading next visibility...
Identifier
60119, 2024-118G
Orbit
LEO
Country
Flag of USUS
Related business
Manufacturer
SpaceX/Seattle
Mission
Operational Commercial Communications
Bus & Motor
STARLINK V2MD, Unknown motor
Mass
960 kg wet, ~910 kg dry
Launch date (UTC)
2024-06-24 (2 years ago)
Launch vehicle
FALCON 9
Launch site
Air Force Western Test Range (AFWTR)
Object type
Payload
Rocket body
Debris
Shape & HBR
Box + 2 Pan, 18.1 m
Radar Cross Section
36.964 m², Large (>1 m²)

Expand to show TLE details & history
Last TLE update: 1 day ago

TLE from 1 day ago
0 STARLINK-11127
1 60119U 24118G   26034.37185680  .00017939  00000-0  15267-3 0  9999
2 60119  53.1578  30.4111 0001246  99.0358 261.0801 15.69699787 92607
Epoch: 2026-02-03T08:55Z
TLE epoch observation values (Epoch: 2026-02-03T08:55:28.427Z)
Latitude
-0.00002°
Longitude
122.9889°
Altitude
360.801 km
Speed
7.694 km/s
True Right ascension
02h 01m 38s
True Declination
0° 00' 00"
Sunlit
Object was in daylight at epoch
Visualization orbit readout
Latitude
Unknown
Longitude
Unknown
Altitude
Unknown
Speed
Unknown
Apparent Right ascension
Unknown
Apparent Declination
Unknown
Sunlit
N/A
Visualization observer readout
Local Sidereal Time
12:10:11
Azimuth
Unknown
Elevation
Unknown
Doppler factor
Unknown
Orbital elements
Apogee altitude
360.857 km
Perigee altitude
359.177 km
Semi-major axis
6,738.154 km
Eccentricity
0.00012
Inclination
53.1578°
RAAN
30.4111°
Arg. of periapsis
99.0358°
True anomaly
261.06599°
Mean anomaly
261.0801°
Eccentric anomaly
261.07305°
Mean motion
3.92403 °/min
Orbital period
91.74 mins
BSTAR
0.00015267
Loading maneuver chart data...
Computing Atmospheric mass density...
Loading historical data...
Loading historical data...
Loading historical data...
Loading historical data...
Loading historical data...
Loading historical data...
Loading historical data...

Documentation

Showing up to 5 results
|